QFA2 WSSS-YSSY

Flight info

Callsign QFA2
Flight time N/A
Altitude 37000
Route IDBUD1B IDBUD T24 SURGA M635 ATMAP A576 TATUK/N0487F390 A576 APOMA Y52 VELGI Y105 TARAL Y59 RIVET
Aircraft A388/J-SADE2E3FGHIJ4J5M1P2RWYZ/LB1D1

Departure

Time N/A
Airport Singapore Changi Airport (WSSS)

Arrival

Time 2026-05-07 09:15
Airport Sydney Kingsford Smith International Airport (YSSY)
Time Latitude Longitude Altitude Speed Heading
2026-05-07 06:46 -3.13285 109.41529 34814 ft 501 kts 129°
2026-05-07 06:46 -3.17871 109.46860 34818 ft 501 kts 129°
2026-05-07 06:47 -3.22417 109.52145 34824 ft 500 kts 129°
2026-05-07 06:47 -3.26957 109.57424 34815 ft 500 kts 129°
2026-05-07 06:48 -3.30729 109.61811 34823 ft 499 kts 129°
2026-05-07 06:48 -3.36003 109.67944 34814 ft 499 kts 129°
2026-05-07 06:49 -3.40541 109.73224 34802 ft 500 kts 130°
2026-05-07 06:49 -3.44322 109.77624 34805 ft 500 kts 129°
2026-05-07 06:50 -3.49597 109.83761 34815 ft 499 kts 129°
2026-05-07 06:50 -3.53369 109.88151 34811 ft 499 kts 129°
2026-05-07 06:51 -3.57894 109.93420 34807 ft 499 kts 130°
2026-05-07 06:51 -3.62419 109.98687 34812 ft 498 kts 130°
2026-05-07 06:52 -3.66953 110.03967 34802 ft 499 kts 130°
2026-05-07 06:52 -3.71455 110.09210 34817 ft 499 kts 130°
2026-05-07 06:53 -3.75987 110.14488 34833 ft 498 kts 130°
2026-05-07 06:53 -3.80515 110.19763 34826 ft 498 kts 130°
2026-05-07 06:54 -3.85005 110.24995 34823 ft 497 kts 130°
2026-05-07 06:54 -3.89536 110.30276 34818 ft 498 kts 130°
2026-05-07 06:55 -3.94047 110.35534 34817 ft 497 kts 129°
2026-05-07 06:55 -3.98423 110.40887 34818 ft 496 kts 127°
2026-05-07 06:56 -4.02629 110.46346 34813 ft 496 kts 127°
2026-05-07 06:56 -4.06861 110.51820 34832 ft 494 kts 127°
2026-05-07 06:57 -4.11067 110.57266 34822 ft 494 kts 127°
2026-05-07 06:57 -4.15265 110.62705 34808 ft 494 kts 127°
2026-05-07 06:58 -4.19452 110.68131 34829 ft 492 kts 127°
2026-05-07 06:58 -4.23639 110.73557 34816 ft 492 kts 127°
2026-05-07 06:59 -4.27827 110.78987 34782 ft 493 kts 127°
2026-05-07 06:59 -4.32017 110.84419 34813 ft 493 kts 127°
2026-05-07 07:00 -4.36206 110.89851 34830 ft 492 kts 127°
2026-05-07 07:00 -4.40391 110.95281 34799 ft 493 kts 127°
2026-05-07 07:01 -4.44579 111.00715 34805 ft 494 kts 127°
2026-05-07 07:01 -4.48771 111.06154 34821 ft 494 kts 127°
2026-05-07 07:02 -4.52993 111.11634 34818 ft 494 kts 127°
2026-05-07 07:02 -4.57177 111.17067 34822 ft 494 kts 127°
2026-05-07 07:03 -4.61373 111.22515 34825 ft 493 kts 127°
2026-05-07 07:03 -4.65598 111.27978 34793 ft 496 kts 127°
2026-05-07 07:04 -4.69838 111.33442 34802 ft 498 kts 128°
2026-05-07 07:04 -4.74080 111.38914 34822 ft 498 kts 127°
2026-05-07 07:05 -4.78333 111.44403 34817 ft 499 kts 127°
2026-05-07 07:05 -4.82584 111.49892 34820 ft 500 kts 127°
2026-05-07 07:06 -4.86843 111.55392 34831 ft 500 kts 127°
2026-05-07 07:06 -4.91107 111.60900 34841 ft 500 kts 127°
2026-05-07 07:07 -4.95393 111.66437 34836 ft 499 kts 127°
2026-05-07 07:07 -4.99651 111.71940 34801 ft 501 kts 128°
2026-05-07 07:08 -5.03918 111.77457 34807 ft 502 kts 128°
2026-05-07 07:08 -5.08210 111.83006 34820 ft 503 kts 128°
2026-05-07 07:09 -5.12496 111.88548 34826 ft 503 kts 128°
2026-05-07 07:09 -5.16799 111.94115 34822 ft 504 kts 128°
2026-05-07 07:10 -5.21079 111.99652 34827 ft 504 kts 128°
2026-05-07 07:10 -5.25372 112.05208 34827 ft 504 kts 128°
2026-05-07 07:11 -5.29672 112.10775 34827 ft 504 kts 128°
2026-05-07 07:11 -5.33975 112.16348 34818 ft 504 kts 128°
2026-05-07 07:12 -5.38244 112.21876 34819 ft 504 kts 128°
2026-05-07 07:12 -5.42546 112.27450 34822 ft 505 kts 128°
2026-05-07 07:13 -5.46847 112.33024 34821 ft 505 kts 128°
2026-05-07 07:13 -5.51151 112.38603 34823 ft 505 kts 128°
2026-05-07 07:14 -5.55453 112.44181 34823 ft 505 kts 128°
2026-05-07 07:14 -5.59752 112.49757 34823 ft 505 kts 128°
2026-05-07 07:15 -5.64051 112.55334 34825 ft 505 kts 128°
2026-05-07 07:15 -5.68343 112.60904 34829 ft 505 kts 128°
2026-05-07 07:16 -5.72617 112.66452 34822 ft 504 kts 128°
2026-05-07 07:16 -5.76907 112.72021 34822 ft 504 kts 128°
2026-05-07 07:17 -5.81201 112.77596 34823 ft 504 kts 128°
2026-05-07 07:17 -5.85486 112.83164 34830 ft 504 kts 128°
2026-05-07 07:18 -5.89773 112.88734 34820 ft 503 kts 128°
2026-05-07 07:18 -5.94054 112.94299 34820 ft 503 kts 128°
2026-05-07 07:19 -5.98331 112.99860 34812 ft 503 kts 128°
2026-05-07 07:19 -6.02577 113.05382 34812 ft 503 kts 128°
2026-05-07 07:20 -6.06891 113.10995 34817 ft 503 kts 128°
2026-05-07 07:20 -6.16238 113.23162 34822 ft 503 kts 128°
2026-05-07 07:21 -6.36144 113.42612 34818 ft 503 kts 145°
2026-05-07 07:21 -6.58888 113.59053 34831 ft 504 kts 145°
2026-05-07 07:22 -6.81712 113.75555 34828 ft 504 kts 146°
2026-05-07 07:22 -7.04471 113.92027 34817 ft 505 kts 145°
2026-05-07 07:23 -7.27307 114.08595 34825 ft 506 kts 145°
2026-05-07 07:23 -7.50032 114.25103 34826 ft 507 kts 145°
2026-05-07 07:24 -7.72909 114.41742 34832 ft 506 kts 145°
2026-05-07 07:24 -7.95761 114.58387 34824 ft 506 kts 146°
2026-05-07 07:25 -8.30114 114.83452 34864 ft 507 kts 146°
2026-05-07 07:26 -8.52954 115.00148 34857 ft 506 kts 146°
2026-05-07 07:26 -8.75701 115.16933 34855 ft 506 kts 141°
2026-05-07 07:27 -8.96222 115.36199 34824 ft 506 kts 139°
2026-05-07 07:27 -9.16922 115.55664 34846 ft 508 kts 139°
2026-05-07 07:28 -9.37679 115.75217 34851 ft 510 kts 139°
2026-05-07 07:28 -9.58470 115.94836 34855 ft 510 kts 140°
2026-05-07 07:29 -9.79244 116.14473 34854 ft 510 kts 139°
2026-05-07 07:29 -10.00045 116.34170 34856 ft 511 kts 139°
2026-05-07 07:29 -10.10451 116.44038 35005 ft 514 kts 139°
2026-05-07 07:30 -10.20830 116.53891 36771 ft 511 kts 139°
2026-05-07 07:30 -10.41426 116.73466 36862 ft 506 kts 139°
2026-05-07 07:31 -10.61854 116.92918 36863 ft 506 kts 139°
2026-05-07 07:31 -10.82388 117.12510 36862 ft 507 kts 140°
2026-05-07 07:32 -11.03002 117.32217 36874 ft 508 kts 140°
2026-05-07 07:32 -11.20283 117.48770 36879 ft 508 kts 140°
2026-05-07 07:33 -11.40724 117.68385 36881 ft 507 kts 140°
2026-05-07 07:33 -11.61231 117.88102 36878 ft 505 kts 140°
2026-05-07 07:34 -11.81581 118.07713 36878 ft 506 kts 140°
2026-05-07 07:34 -12.02061 118.27487 36883 ft 507 kts 140°
2026-05-07 07:35 -12.22479 118.47258 36894 ft 507 kts 140°
2026-05-07 07:35 -12.42932 118.67093 36907 ft 507 kts 140°
2026-05-07 07:36 -12.63384 118.86978 36894 ft 506 kts 140°
2026-05-07 07:36 -12.83833 119.06905 36899 ft 506 kts 140°
2026-05-07 07:37 -13.04264 119.26864 36893 ft 507 kts 141°
2026-05-07 07:37 -13.24519 119.46697 36906 ft 506 kts 141°
2026-05-07 07:38 -13.44904 119.66705 36910 ft 506 kts 141°
2026-05-07 07:38 -13.65256 119.86731 36931 ft 506 kts 141°
2026-05-07 07:39 -13.85678 120.06877 36924 ft 507 kts 141°
2026-05-07 07:39 -14.06027 120.27003 36928 ft 509 kts 141°
2026-05-07 07:40 -14.26492 120.47294 36935 ft 510 kts 141°
2026-05-07 07:40 -14.46937 120.67621 36955 ft 510 kts 141°
2026-05-07 07:41 -14.67270 120.87891 36931 ft 512 kts 141°
2026-05-07 07:41 -14.87777 121.08391 36944 ft 513 kts 142°
2026-05-07 07:42 -15.08283 121.28945 36948 ft 515 kts 142°
2026-05-07 07:42 -15.28947 121.49718 36941 ft 515 kts 142°
2026-05-07 07:43 -15.49507 121.70447 36953 ft 517 kts 142°
2026-05-07 07:43 -15.70091 121.91260 36958 ft 517 kts 142°
2026-05-07 07:44 -15.90670 122.12131 36955 ft 517 kts 142°
2026-05-07 07:44 -16.11262 122.33078 36961 ft 519 kts 142°
2026-05-07 07:45 -16.31925 122.54162 36954 ft 521 kts 143°
2026-05-07 07:45 -16.52472 122.75193 36965 ft 522 kts 143°
2026-05-07 07:46 -16.73184 122.96459 36969 ft 523 kts 143°
2026-05-07 07:46 -16.93940 123.17843 36971 ft 523 kts 143°
2026-05-07 07:47 -17.14587 123.39181 36970 ft 522 kts 144°
2026-05-07 07:47 -17.35179 123.60533 36972 ft 522 kts 144°
2026-05-07 07:48 -17.55826 123.82003 36986 ft 524 kts 144°
2026-05-07 07:48 -17.64999 123.94340 36973 ft 539 kts 134°
2026-05-07 07:48 -17.73594 124.07100 36978 ft 540 kts 134°
2026-05-07 07:49 -17.90865 124.32896 36989 ft 541 kts 134°
2026-05-07 07:49 -18.08159 124.58828 37000 ft 542 kts 134°
2026-05-07 07:50 -18.25412 124.84804 37009 ft 544 kts 134°
2026-05-07 07:50 -18.42782 125.11063 37011 ft 544 kts 134°
2026-05-07 07:51 -18.59988 125.37173 37019 ft 545 kts 134°
2026-05-07 07:51 -18.77313 125.63570 37035 ft 546 kts 133°
2026-05-07 07:52 -18.94519 125.89897 37039 ft 547 kts 133°
2026-05-07 07:52 -19.11802 126.16460 37055 ft 548 kts 133°
2026-05-07 07:53 -19.29023 126.43041 37457 ft 551 kts 132°
2026-05-07 07:53 -19.37610 126.56343 39052 ft 544 kts 132°
2026-05-07 07:53 -19.46096 126.69516 39079 ft 544 kts 132°
2026-05-07 07:54 -19.63136 126.96111 39078 ft 545 kts 132°
2026-05-07 07:54 -19.80219 127.22883 39094 ft 548 kts 131°
2026-05-07 07:55 -19.97369 127.49885 39092 ft 553 kts 131°
2026-05-07 07:55 -20.14564 127.77082 39114 ft 554 kts 130°
2026-05-07 07:56 -20.31628 128.04196 39097 ft 555 kts 130°
2026-05-07 07:56 -20.48809 128.31624 39109 ft 558 kts 130°
2026-05-07 07:57 -20.66061 128.59294 39118 ft 559 kts 129°
2026-05-07 07:57 -20.83187 128.86898 39121 ft 560 kts 129°
2026-05-07 07:58 -21.00387 129.14753 39124 ft 562 kts 128°
2026-05-07 07:58 -21.17590 129.42754 39132 ft 563 kts 128°
2026-05-07 07:59 -21.34789 129.70888 39140 ft 565 kts 127°
2026-05-07 07:59 -21.51929 129.99068 39148 ft 566 kts 127°
2026-05-07 08:00 -21.69127 130.27491 39155 ft 567 kts 127°
2026-05-07 08:00 -21.86299 130.56012 39158 ft 568 kts 126°
2026-05-07 08:01 -22.03450 130.84670 39182 ft 569 kts 126°
2026-05-07 08:01 -22.20561 131.13402 39169 ft 568 kts 126°
2026-05-07 08:02 -22.37495 131.41996 39181 ft 568 kts 125°
2026-05-07 08:02 -22.54486 131.70841 39193 ft 569 kts 125°
2026-05-07 08:03 -22.71460 131.99816 39191 ft 569 kts 124°
2026-05-07 08:03 -22.88392 132.28882 39200 ft 570 kts 124°
2026-05-07 08:04 -23.05282 132.58039 39213 ft 570 kts 124°
2026-05-07 08:04 -23.22009 132.87077 39222 ft 570 kts 124°
2026-05-07 08:05 -23.38752 133.16310 39226 ft 568 kts 123°
2026-05-07 08:05 -23.55438 133.45613 39246 ft 570 kts 123°
2026-05-07 08:06 -23.72122 133.75086 39259 ft 571 kts 123°
2026-05-07 08:06 -23.90799 134.02923 39247 ft 568 kts 132°
2026-05-07 08:07 -24.10987 134.29566 39246 ft 568 kts 132°
2026-05-07 08:07 -24.31118 134.56276 39268 ft 568 kts 131°
2026-05-07 08:08 -24.51035 134.82847 39259 ft 567 kts 131°
2026-05-07 08:08 -24.71011 135.09642 39253 ft 566 kts 131°
2026-05-07 08:09 -24.90951 135.36542 39262 ft 567 kts 131°
2026-05-07 08:09 -25.10854 135.63543 39266 ft 567 kts 131°
2026-05-07 08:10 -25.30728 135.90661 39271 ft 567 kts 131°
2026-05-07 08:10 -25.50578 136.17901 39275 ft 569 kts 131°
2026-05-07 08:11 -25.70410 136.45277 39281 ft 570 kts 130°
2026-05-07 08:11 -25.90216 136.72771 39298 ft 570 kts 130°
2026-05-07 08:12 -26.09836 137.00200 39277 ft 569 kts 130°
2026-05-07 08:12 -26.29491 137.27832 39277 ft 568 kts 130°
2026-05-07 08:13 -26.49072 137.55531 39286 ft 568 kts 130°
2026-05-07 08:13 -26.68500 137.83181 39289 ft 568 kts 130°
2026-05-07 08:14 -26.87956 138.11044 39307 ft 567 kts 130°
2026-05-07 08:14 -27.07335 138.38985 39282 ft 566 kts 130°
2026-05-07 08:15 -27.26605 138.66929 39287 ft 565 kts 130°
2026-05-07 08:15 -27.45815 138.94972 39307 ft 565 kts 129°
2026-05-07 08:16 -27.64942 139.23071 39308 ft 565 kts 129°
2026-05-07 08:16 -27.83894 139.51096 39331 ft 564 kts 129°
2026-05-07 08:17 -28.02865 139.79333 39320 ft 563 kts 129°
2026-05-07 08:17 -28.21757 140.07634 39321 ft 562 kts 129°
2026-05-07 08:18 -28.40543 140.35967 39334 ft 560 kts 129°
2026-05-07 08:18 -28.59248 140.64364 39328 ft 559 kts 129°
2026-05-07 08:19 -28.77796 140.92714 39335 ft 559 kts 129°
2026-05-07 08:19 -28.96280 141.21158 39337 ft 558 kts 129°
2026-05-07 08:20 -29.14739 141.49758 39330 ft 559 kts 129°
2026-05-07 08:20 -29.33123 141.78436 39352 ft 559 kts 129°
2026-05-07 08:21 -29.48310 142.02281 39343 ft 558 kts 129°
2026-05-07 08:21 -29.69613 142.35961 39373 ft 558 kts 129°
2026-05-07 08:22 -29.84796 142.60126 39355 ft 556 kts 129°
2026-05-07 08:22 -30.03798 142.88026 39348 ft 553 kts 133°
2026-05-07 08:23 -30.23146 143.15636 39348 ft 553 kts 132°
2026-05-07 08:23 -30.42377 143.43291 39348 ft 553 kts 132°
2026-05-07 08:24 -30.61733 143.71321 39361 ft 552 kts 132°
2026-05-07 08:24 -30.80830 143.99171 39349 ft 551 kts 132°
2026-05-07 08:25 -30.99719 144.26915 39354 ft 550 kts 132°
2026-05-07 08:25 -31.18596 144.54838 39342 ft 547 kts 132°
2026-05-07 08:26 -31.46756 144.96871 39358 ft 545 kts 132°
2026-05-07 08:26 -31.65373 145.24914 39331 ft 544 kts 132°
2026-05-07 08:27 -31.83891 145.53005 39331 ft 543 kts 132°
2026-05-07 08:27 -32.02188 145.80963 39324 ft 541 kts 132°
2026-05-07 08:28 -32.14207 145.99442 39313 ft 541 kts 132°
2026-05-07 08:28 -32.18770 146.06485 39313 ft 541 kts 132°
2026-05-07 08:29 -32.23330 146.13533 39305 ft 541 kts 132°
2026-05-07 08:29 -32.27888 146.20590 39326 ft 541 kts 132°
2026-05-07 08:30 -32.32442 146.27655 39335 ft 539 kts 132°
2026-05-07 08:30 -32.36984 146.34715 39327 ft 539 kts 132°
2026-05-07 08:31 -32.41508 146.41759 39323 ft 538 kts 132°
2026-05-07 08:31 -32.46020 146.48798 39316 ft 537 kts 132°
2026-05-07 08:32 -32.50526 146.55841 39310 ft 537 kts 132°
2026-05-07 08:32 -32.55020 146.62879 39304 ft 536 kts 132°
2026-05-07 08:33 -32.59514 146.69928 39299 ft 536 kts 132°
2026-05-07 08:33 -32.63991 146.76965 39295 ft 535 kts 132°
2026-05-07 08:34 -32.68493 146.84055 39293 ft 535 kts 132°
2026-05-07 08:34 -32.72951 146.91091 39334 ft 534 kts 132°
2026-05-07 08:35 -32.77402 146.98127 39321 ft 533 kts 132°
2026-05-07 08:35 -32.81843 147.05161 39315 ft 532 kts 132°
2026-05-07 08:36 -32.86264 147.12177 39322 ft 531 kts 132°
2026-05-07 08:36 -32.90709 147.19244 39296 ft 530 kts 132°
2026-05-07 08:37 -32.95113 147.26259 39287 ft 530 kts 132°
2026-05-07 08:37 -32.99526 147.33302 39282 ft 530 kts 132°
2026-05-07 08:38 -33.03904 147.40302 39275 ft 530 kts 132°
2026-05-07 08:38 -33.08321 147.47377 39270 ft 530 kts 132°
2026-05-07 08:39 -33.12703 147.54411 39293 ft 529 kts 132°
2026-05-07 08:39 -33.17093 147.61469 39264 ft 530 kts 132°
2026-05-07 08:40 -33.21479 147.68536 39242 ft 531 kts 132°
2026-05-07 08:40 -33.25879 147.75633 39245 ft 532 kts 132°
2026-05-07 08:41 -33.30278 147.82739 39237 ft 532 kts 132°
2026-05-07 08:41 -33.34682 147.89865 39247 ft 533 kts 132°
2026-05-07 08:42 -33.39376 147.96636 39231 ft 528 kts 140°
2026-05-07 08:42 -33.44370 148.03049 39239 ft 528 kts 140°
2026-05-07 08:43 -33.49367 148.09506 39242 ft 530 kts 139°
2026-05-07 08:43 -33.54404 148.16051 39263 ft 532 kts 139°
2026-05-07 08:44 -33.59412 148.22580 39266 ft 533 kts 139°
2026-05-07 08:44 -33.64428 148.29129 39265 ft 533 kts 139°
2026-05-07 08:45 -33.69435 148.35679 39265 ft 533 kts 139°
2026-05-07 08:45 -33.74440 148.42237 39262 ft 533 kts 139°
2026-05-07 08:46 -33.79438 148.48797 39263 ft 533 kts 139°
2026-05-07 08:46 -33.84446 148.55386 39258 ft 533 kts 139°
2026-05-07 08:47 -33.89435 148.61960 39274 ft 532 kts 139°
2026-05-07 08:47 -33.94424 148.68546 39268 ft 532 kts 139°
2026-05-07 08:48 -33.99399 148.75126 39263 ft 531 kts 138°
2026-05-07 08:48 -34.04372 148.81717 39259 ft 531 kts 138°
2026-05-07 08:49 -34.09321 148.88289 39254 ft 530 kts 139°
2026-05-07 08:49 -34.14298 148.94908 39248 ft 530 kts 138°
2026-05-07 08:50 -34.19236 149.01489 39245 ft 529 kts 138°
2026-05-07 08:50 -34.24166 149.08071 39242 ft 530 kts 138°
2026-05-07 08:51 -34.29099 149.14670 39242 ft 529 kts 138°
2026-05-07 08:51 -34.34034 149.21285 39241 ft 529 kts 138°
2026-05-07 08:52 -34.38976 149.27923 39205 ft 526 kts 138°
2026-05-07 08:52 -34.41241 149.31351 38999 ft 527 kts 128°
2026-05-07 08:52 -34.43020 149.35277 38508 ft 532 kts 117°
2026-05-07 08:53 -34.44175 149.39491 38050 ft 533 kts 107°
2026-05-07 08:53 -34.44780 149.43944 37511 ft 533 kts 101°
2026-05-07 08:53 -34.45168 149.48422 36973 ft 529 kts 100°
2026-05-07 08:53 -34.45551 149.52797 36435 ft 524 kts 102°
2026-05-07 08:54 -34.45988 149.57182 35916 ft 518 kts 103°
2026-05-07 08:54 -34.46457 149.61452 35412 ft 513 kts 105°
2026-05-07 08:54 -34.46949 149.65722 34902 ft 507 kts 105°
2026-05-07 08:54 -34.47439 149.69894 34426 ft 500 kts 106°
2026-05-07 08:55 -34.47927 149.74045 33973 ft 492 kts 107°
2026-05-07 08:55 -34.48412 149.78156 33219 ft 489 kts 107°
2026-05-07 08:55 -34.48900 149.82272 32154 ft 494 kts 107°
2026-05-07 08:55 -34.49388 149.86377 31067 ft 500 kts 107°
2026-05-07 08:56 -34.49660 149.90640 30345 ft 511 kts 98°
2026-05-07 08:56 -34.49270 149.94968 29627 ft 521 kts 86°
2026-05-07 08:56 -34.48234 149.99152 28932 ft 528 kts 75°
2026-05-07 08:56 -34.46574 150.03153 28206 ft 533 kts 66°
2026-05-07 08:57 -34.44621 150.06977 27483 ft 530 kts 64°
2026-05-07 08:57 -34.42700 150.10755 26816 ft 524 kts 66°
2026-05-07 08:57 -34.40860 150.14561 25848 ft 524 kts 67°
2026-05-07 08:57 -34.39084 150.18419 25063 ft 522 kts 69°
2026-05-07 08:58 -34.37350 150.22270 24346 ft 517 kts 69°
2026-05-07 08:58 -34.35647 150.26082 23652 ft 513 kts 70°
2026-05-07 08:58 -34.33981 150.29820 22853 ft 506 kts 69°
2026-05-07 08:58 -34.32312 150.33562 22098 ft 500 kts 70°
2026-05-07 08:59 -34.30668 150.37253 21315 ft 495 kts 70°
2026-05-07 08:59 -34.29036 150.40900 20553 ft 490 kts 70°
2026-05-07 08:59 -34.27417 150.44503 19878 ft 484 kts 70°
2026-05-07 08:59 -34.25822 150.48065 19339 ft 476 kts 70°
2026-05-07 09:00 -34.24279 150.51514 18705 ft 470 kts 70°
2026-05-07 09:00 -34.22734 150.54969 18004 ft 464 kts 69°
2026-05-07 09:00 -34.21215 150.58366 17361 ft 456 kts 68°
2026-05-07 09:00 -34.19718 150.61704 16681 ft 448 kts 68°
2026-05-07 09:01 -34.18237 150.65009 15901 ft 445 kts 67°
2026-05-07 09:01 -34.16772 150.68270 15311 ft 437 kts 66°
2026-05-07 09:01 -34.15329 150.71474 14714 ft 429 kts 65°
2026-05-07 09:01 -34.13912 150.74620 14107 ft 422 kts 65°
2026-05-07 09:02 -34.12543 150.77661 13657 ft 410 kts 64°
2026-05-07 09:02 -34.11189 150.80659 12888 ft 405 kts 64°
2026-05-07 09:02 -34.09932 150.83685 12104 ft 399 kts 70°
2026-05-07 09:02 -34.09048 150.86828 11347 ft 392 kts 79°
2026-05-07 09:03 -34.08499 150.90023 10633 ft 384 kts 83°
2026-05-07 09:03 -34.07997 150.93154 10019 ft 374 kts 83°
2026-05-07 09:03 -34.07508 150.96165 9350 ft 366 kts 83°
2026-05-07 09:03 -34.07015 150.99150 8698 ft 358 kts 83°
2026-05-07 09:04 -34.06525 151.02063 8199 ft 347 kts 83°
2026-05-07 09:04 -34.06043 151.04864 7880 ft 334 kts 83°
2026-05-07 09:04 -34.05559 151.07554 7664 ft 322 kts 83°
2026-05-07 09:04 -34.05087 151.10117 7458 ft 311 kts 83°
2026-05-07 09:05 -34.04612 151.12629 7256 ft 302 kts 83°
2026-05-07 09:05 -34.04140 151.15073 7055 ft 292 kts 83°
2026-05-07 09:05 -34.03681 151.17413 6857 ft 285 kts 83°
2026-05-07 09:05 -34.03221 151.19720 6648 ft 279 kts 83°
2026-05-07 09:06 -34.02766 151.21949 6450 ft 273 kts 83°
2026-05-07 09:06 -34.02312 151.24154 6236 ft 267 kts 83°
2026-05-07 09:06 -34.01865 151.26309 6025 ft 262 kts 83°
2026-05-07 09:06 -34.01428 151.28409 5812 ft 258 kts 83°
2026-05-07 09:07 -34.00991 151.30503 5604 ft 255 kts 83°
2026-05-07 09:07 -34.00561 151.32568 5395 ft 252 kts 83°
2026-05-07 09:07 -34.00140 151.34610 5187 ft 250 kts 83°
2026-05-07 09:07 -33.99758 151.36601 5011 ft 244 kts 83°
2026-05-07 09:08 -33.99267 151.38516 4795 ft 233 kts 62°
2026-05-07 09:08 -33.98161 151.39882 4509 ft 226 kts 24°
2026-05-07 09:08 -33.96707 151.40323 4250 ft 213 kts 352°
2026-05-07 09:08 -33.95255 151.40164 3960 ft 208 kts 343°
2026-05-07 09:09 -33.93822 151.39948 3660 ft 209 kts 343°
2026-05-07 09:09 -33.92378 151.39726 3354 ft 206 kts 340°
2026-05-07 09:09 -33.91446 151.39531 3143 ft 200 kts 334°
2026-05-07 09:09 -33.90156 151.38343 2754 ft 162 kts 281°
2026-05-07 09:10 -33.89996 151.37483 2640 ft 152 kts 267°
2026-05-07 09:10 -33.89964 151.36239 2461 ft 150 kts 263°
2026-05-07 09:10 -33.90098 151.34586 2218 ft 146 kts 254°
2026-05-07 09:10 -33.90254 151.33786 2116 ft 147 kts 252°
2026-05-07 09:11 -33.90536 151.32595 2098 ft 144 kts 250°
2026-05-07 09:11 -33.90805 151.31451 2105 ft 144 kts 250°
2026-05-07 09:11 -33.91083 151.30285 2060 ft 146 kts 250°
2026-05-07 09:11 -33.91362 151.29099 1852 ft 146 kts 251°
2026-05-07 09:12 -33.91625 151.27985 1661 ft 130 kts 251°
2026-05-07 09:12 -33.91861 151.26988 1484 ft 119 kts 251°
2026-05-07 09:12 -33.92089 151.26031 1326 ft 120 kts 251°
2026-05-07 09:12 -33.92320 151.25071 1124 ft 117 kts 252°
2026-05-07 09:13 -33.92557 151.24116 1006 ft 121 kts 252°
2026-05-07 09:13 -33.92778 151.23148 850 ft 121 kts 254°
2026-05-07 09:13 -33.93011 151.22174 679 ft 121 kts 255°
2026-05-07 09:13 -33.93244 151.21188 472 ft 127 kts 256°
2026-05-07 09:14 -33.93477 151.20168 300 ft 124 kts 257°
2026-05-07 09:14 -33.93713 151.19211 108 ft 120 kts 257°
2026-05-07 09:14 -33.93923 151.18270 35 ft 100 kts 255°
2026-05-07 09:14 -33.94075 151.17626 33 ft 63 kts 255°
2026-05-07 09:15 -33.94170 151.17221 33 ft 39 kts 254°
2026-05-07 09:15 -33.94218 151.17015 34 ft 17 kts 254°
2026-05-07 09:15 -33.94239 151.16917 33 ft 8 kts 270°
2026-05-07 09:15 -33.94218 151.16866 33 ft 6 kts 327°
2026-05-07 09:16 -33.94179 151.16851 34 ft 6 kts 348°
2026-05-07 09:16 -33.94137 151.16840 34 ft 7 kts 348°
2026-05-07 09:16 -33.94092 151.16830 35 ft 6 kts 353°
2026-05-07 09:16 -33.94060 151.16849 35 ft 6 kts 64°
2026-05-07 09:17 -33.94045 151.16910 35 ft 10 kts 75°
2026-05-07 09:17 -33.94024 151.17001 35 ft 13 kts 74°
2026-05-07 09:17 -33.93995 151.17122 35 ft 17 kts 74°
2026-05-07 09:17 -33.93969 151.17206 34 ft 8 kts 40°
2026-05-07 09:18 -33.93915 151.17212 34 ft 9 kts 347°
2026-05-07 09:18 -33.93852 151.17195 34 ft 10 kts 347°
2026-05-07 09:18 -33.93779 151.17175 34 ft 12 kts 347°
2026-05-07 09:18 -33.93697 151.17153 34 ft 12 kts 347°
2026-05-07 09:19 -33.93611 151.17131 34 ft 12 kts 348°
2026-05-07 09:19 -33.93528 151.17110 34 ft 11 kts 344°
2026-05-07 09:19 -33.93498 151.17073 35 ft 5 kts 278°
2026-05-07 09:19 -33.93501 151.17035 35 ft 4 kts 258°
2026-05-07 09:20 -33.93508 151.16999 35 ft 5 kts 258°
2026-05-07 09:20 -33.93515 151.16958 35 ft 6 kts 258°
2026-05-07 09:20 -33.93525 151.16905 35 ft 7 kts 258°
2026-05-07 09:20 -33.93540 151.16860 35 ft 6 kts 236°
2026-05-07 09:21 -33.93556 151.16833 35 ft 1 kts 236°
2026-05-07 09:21 -33.93560 151.16825 35 ft 0 kts 236°